Regional Weather Roundup
Issued by NWS

Home | Current Version | Previous Version | Text Only | Print | Product List | Glossary On
Versions: 1 2 3 4 5 6 7 8 9 10 11 12 13 14 15 16 17 18 19 20 21 22 23 24 25 26 27 28 29 30 31 32 33 34 35 36 37 38 39 40 41 42 43 44 45 46 47 48 49 50
000
ASUS42 KKEY 231510
RWRKEY

FLORIDA REGIONAL WEATHER ROUNDUP FOR THE FLORIDA KEYS
NATIONAL WEATHER SERVICE KEY WEST FLORIDA
1100 AM EDT SAT AUG 23 2014

...SOUTH FLORIDA AND THE KEYS...

CITY           SKY/WX    TMP DP  RH WIND       PRES   REMARKS
FORT MYERS     SUNNY     88  75  65 CALM      29.98S HX  97
SW REGIONAL AP SUNNY     87  74  64 SW3       29.99S HX  95
NAPLES         SUNNY     89  74  60 N5        29.98S HX  98
MIAMI          MOSUNNY   89  72  56 NE8       29.97S HX  96
WEST KENDALL   MOSUNNY   90  73  57 NE7       29.98R HX  98
HOMESTEAD      DRIZZLE   88  75  66 NE10      29.97S HX  97
MARATHON       SUNNY     88  77  69 NE8       29.96S HX 100
BOCA CHICA NAS MOSUNNY   91  73  55 N9        29.97R HX  99
KEY WEST INTL  SUNNY     90  74  59 NE7       29.98R HX  99

...INTERNATIONAL WEATHER...

CITY           SKY/WX    TMP DP  RH WIND       PRES   REMARKS
NASSAU BAHAMAS MOSUNNY   88  77  70 NE14      29.96R HX 100
CANCUN MEXICO  MOSUNNY   86  75  70 N3        29.96F HX  95
COZUMEL MEXICO MOSUNNY   82  75  78 NE7       29.96S

ADJACENT COASTAL WATERS...

STATION/POSITION TIME  SKY/WX   TEMP    WIND        PRES    WAVE
                                AIR SEA DIR/SP/G            HT/PER
                 (UTC)          (F)     (DEG/KT/KT) (MB)    (FT/S)
PULASKI SHOAL LI 1500            85      10/  6/  7 1015.2R
SAND KEY         1500            85      50/  6/  7 1015.0R
SOMBRERO KEY     1500            85      30/  9/ 10 1015.2F
LONG KEY         1400            85 88   20/  7/  9 1015.3R
MOLASSES REEF    1500            85 87   60/  9/ 10 1014.7R
FOWEY ROCKS      1500            85 88   20/ 10/ 10 1015.2R
Buoy 42080       NOT AVBL

$$


USA.gov is the U.S. government's official web portal to all federal, state and local government web resources and services.